Miami, FL

2:46 PM EDT en Octubre 17, 2017 (GMT -0400)
Miami International

Tiempo Historia de KMIA - Octubre, 2017

Change the Weather History Date:

Viernes, Octubre 13, 2017

  Actual Average Record
Temperature  
Temperatura media 84 ° F 80 ° F  
Temperatura máxima 89 ° F 87 ° F 93 ° F (1990)
Temperatura mínima 78 ° F 74 ° F 62 ° F (1977)
Degree Days  
Grados día de calefacción 0 0  
Month to date heating degree days 0 0  
Since 1 July heating degree days 0 0  
Cooling Degree Days 19 15  
Month to date cooling degree days 249 212  
Year to date cooling degree days 4424 3824  
Growing Degree Days 34 (Base 50)    
Moisture  
Punto de rocío 76 ° F    
Average Humidity 80    
Maximum Humidity 97    
Minimum Humidity 63    
Precipitación  
Precipitación 0.11 pul 0.23 pul 2.61 pul (1965)
Month to date precipitation 6.37 3.39  
Year to date precipitation 71.81 53.65  
Nieve  
Nieve 0.00 pul - - ()
Month to date snowfall 0.0  
Since 1 July snowfall 0.0  
Since 1 September snowfall 0.0  
Grosos de nieve 0.00 pul    
Presión al nivel del mar  
Presión al nivel del mar 29.94 pul    
Viento  
Velocidad del viento 8 mph (ENE)    
Velocidad máxima del viento 16 mph    
Max Gust Speed 21 mph    
Visibilidad 9 Millas    
Eventos Lluvia    
T = Trace of Precipitation, MM = Missing Value Source: NWS Daily Summary

Daily Weather History Graph

Daily Weather History Graph

Search for Another Location

Airport or City:

Trip Planner

Search our weather history database for the weather conditions in past years. The results will help you decide how hot, cold, wet, or windy it might be!

Date:

Astronomía

Oct. 13, 2017 Salida Puesta
Hora real 7:19 AM EDT 6:55 PM EDT
Crepúsculo civil 6:55 AM EDT 7:18 PM EDT
Crepúsculo náutico 6:29 AM EDT 7:45 PM EDT
Crepúsculo astronómico 6:02 AM EDT 8:11 PM EDT
Luna 1:20 AM EDT (10/13) 3:00 PM EDT (10/13)
Horas de luz 12h 22m
Horas de luz
11h 36m
Cuarto menguante, 37% of the Moon is Illuminated
Oct 13
Cuarto menguante
Oct 19
Nueva
Oct 27
Cuarto creciente
Nov 4
Luna llena
Nov 10
Cuarto menguante

Hourly Weather History & Observations

Hora (EDT) Temp. Índice de calor Punto de rocío Humedad Presión Visibilidad Wind Dir Velocidad del viento Velocidad de ráfagas Precip Eventos Condiciones
12:53 AM 82.0 ° F 89.4 ° F 75.9 ° F 82% 29.90 pul 10.0 mi ENE 8.1 mph - 0.00 pul Lluvia Lluvia débil
1:13 AM 81.0 ° F 87.3 ° F 75.9 ° F 85% 29.90 pul 2.0 mi ENE 9.2 mph - 0.00 pul Lluvia Lluvia
1:22 AM 81.0 ° F 87.3 ° F 75.9 ° F 85% 29.90 pul 7.0 mi ENE 6.9 mph - 0.00 pul Lluvia Lluvia débil
1:53 AM 80.1 ° F 85.8 ° F 77.0 ° F 90% 29.90 pul 10.0 mi Norte 4.6 mph - 0.00 pul   Nublado
2:53 AM 79.0 ° F - 78.1 ° F 97% 29.90 pul 4.0 mi Norte 5.8 mph - 0.04 pul Lluvia Lluvias fuertes
3:15 AM 79.0 ° F - 77.0 ° F 94% 29.89 pul 10.0 mi Norte 4.6 mph - 0.00 pul   Muy nublado
3:53 AM 79.0 ° F - 77.0 ° F 94% 29.89 pul 10.0 mi NNE 4.6 mph - 0.00 pul   Muy nublado
4:53 AM 79.0 ° F - 77.0 ° F 94% 29.89 pul 10.0 mi NNE 3.5 mph - N/A   Muy nublado
5:53 AM 78.1 ° F - 75.9 ° F 93% 29.91 pul 10.0 mi ENE 3.5 mph - N/A   Muy nublado
6:53 AM 79.0 ° F - 75.0 ° F 88% 29.94 pul 10.0 mi NNE 4.6 mph - N/A   Muy nublado
7:53 AM 79.0 ° F - 75.9 ° F 90% 29.95 pul 10.0 mi NE 5.8 mph - N/A   Muy nublado
8:53 AM 81.0 ° F 87.9 ° F 77.0 ° F 88% 29.97 pul 10.0 mi NNE 5.8 mph - N/A   Muy nublado
9:43 AM 79.0 ° F - 75.9 ° F 90% 29.98 pul 7.0 mi Variable 3.5 mph - 0.04 pul Lluvia Lluvias fuertes
9:53 AM 81.0 ° F 87.3 ° F 75.9 ° F 85% 29.98 pul 7.0 mi Norte 5.8 mph - 0.07 pul Lluvia Lluvia débil
10:53 AM 82.9 ° F 92.8 ° F 78.1 ° F 85% 29.98 pul 10.0 mi Sin viento Sin viento - 0.00 pul   Muy nublado
11:53 AM 84.9 ° F 94.1 ° F 75.9 ° F 74% 29.98 pul 10.0 mi Este 11.5 mph - N/A   Muy nublado
12:53 PM 86.0 ° F 95.1 ° F 75.0 ° F 70% 29.97 pul 10.0 mi ENE 11.5 mph - N/A   Muy nublado
1:53 PM 86.0 ° F 95.1 ° F 75.0 ° F 70% 29.95 pul 10.0 mi Este 11.5 mph - N/A   Muy nublado
2:00 PM 84.9 ° F 93.3 ° F 75.0 ° F 72% 29.95 pul 10.0 mi ENE 12.7 mph - N/A   Muy nublado
2:42 PM 86.0 ° F 95.1 ° F 75.0 ° F 70% 29.94 pul 10.0 mi Este 12.7 mph - N/A   Muy nublado
2:53 PM 86.0 ° F 95.1 ° F 75.0 ° F 70% 29.94 pul 10.0 mi Este 8.1 mph - N/A   Muy nublado
3:53 PM 89.1 ° F 100.2 ° F 75.9 ° F 65% 29.93 pul 10.0 mi Este 15.0 mph - N/A   Muy nublado
4:53 PM 87.1 ° F 95.4 ° F 73.9 ° F 65% 29.93 pul 10.0 mi Este 15.0 mph - N/A   Muy nublado
5:53 PM 86.0 ° F 93.8 ° F 73.9 ° F 67% 29.94 pul 10.0 mi ESE 13.8 mph - N/A   Muy nublado
6:53 PM 84.0 ° F 91.9 ° F 75.0 ° F 74% 29.96 pul 10.0 mi ESE 11.5 mph - N/A   Muy nublado
7:53 PM 82.9 ° F 90.8 ° F 75.9 ° F 79% 29.96 pul 10.0 mi Este 10.4 mph - N/A   Nubes dispersas
8:53 PM 82.9 ° F 90.8 ° F 75.9 ° F 79% 29.98 pul 10.0 mi Este 9.2 mph - N/A   Nubes dispersas
9:53 PM 82.9 ° F 90.8 ° F 75.9 ° F 79% 29.99 pul 10.0 mi Este 9.2 mph - N/A   Nubes dispersas
10:53 PM 82.9 ° F 91.8 ° F 77.0 ° F 82% 30.00 pul 10.0 mi Este 8.1 mph - N/A   Nubes dispersas
11:53 PM 82.0 ° F 90.2 ° F 77.0 ° F 85% 30.01 pul 10.0 mi Este 9.2 mph - N/A   Nubes dispersas